CW5367 Weather Reports


time (UTC)temp
F
wind
direction
speed
knots
gust
knots
rain 1hr
in
rain 24hr
in
rain mn
in
humidity
%
barometer
mb
20260510130549 53 0 0.0 3.5 0.00 0.35 0.00 98 1013.3
20260510130055 53 0 0.0 1.7 0.00 0.35 0.00 98 1013.4
20260510125551 53 0 0.0 1.7 0.00 0.35 0.00 98 1013.3
20260510125052 52 0 0.0 0.9 0.00 0.35 0.00 98 1013.2
20260510124556 52 0 0.0 1.7 0.00 0.35 0.00 98 1013.2
20260510124052 52 0 0.0 1.7 0.00 0.35 0.00 98 1013.0
20260510123552 52 0 0.0 0.9 0.00 0.35 0.00 98 1012.8
20260510123052 52 0 0.0 0.0 0.00 0.35 0.00 98 1012.8
20260510122551 51 0 0.0 0.9 0.00 0.35 0.00 98 1012.7
20260510122051 51 0 0.0 1.7 0.00 0.35 0.00 98 1012.7
20260510121555 51 0 0.0 1.7 0.00 0.35 0.00 98 1012.6
20260510121053 51 61 0.0 1.7 0.00 0.35 0.00 98 1012.6
20260510120551 51 0 0.0 1.7 0.00 0.35 0.00 98 1012.6
20260510120053 51 0 0.0 1.7 0.00 0.35 0.00 98 1012.5
20260510115551 51 0 0.0 0.9 0.00 0.35 0.00 98 1012.5
20260510115049 51 0 0.0 0.9 0.00 0.35 0.00 98 1012.6
20260510114556 51 0 0.0 0.9 0.00 0.35 0.00 98 1012.1
20260510114049 51 0 0.0 0.9 0.00 0.35 0.00 98 1011.9
20260510113548 51 0 0.0 0.9 0.00 0.35 0.00 98 1012.0
20260510113054 51 0 0.0 0.9 0.00 0.35 0.00 98 1012.1
20260510112552 51 0 0.0 0.0 0.00 0.35 0.00 98 1012.2
20260510112052 50 0 0.0 0.0 0.00 0.35 0.00 98 1012.1
20260510111555 50 0 0.0 0.0 0.00 0.35 0.00 98 1012.2
20260510111051 50 0 0.0 0.0 0.00 0.35 0.00 98 1012.2
20260510110552 50 0 0.0 0.0 0.00 0.35 0.00 98 1012.3
20260510110054 50 0 0.0 0.0 0.00 0.35 0.00 98 1012.1
20260510105552 50 0 0.0 0.0 0.00 0.35 0.00 98 1011.9
20260510105052 50 0 0.0 0.0 0.00 0.35 0.00 98 1011.9
20260510104555 50 0 0.0 0.0 0.00 0.35 0.00 98 1011.9
20260510104051 50 0 0.0 0.0 0.00 0.35 0.00 98 1011.9
20260510103549 49 0 0.0 0.9 0.00 0.35 0.00 98 1011.8
20260510103056 49 0 0.0 0.9 0.00 0.35 0.00 98 1011.8
20260510102551 49 0 0.0 0.0 0.00 0.35 0.00 98 1011.7
20260510102052 49 0 0.0 0.0 0.00 0.35 0.00 98 1011.7
20260510101600 49 0 0.0 0.0 0.00 0.35 0.00 98 1011.7
20260510101048 49 0 0.0 0.0 0.00 0.35 0.00 98 1011.6
20260510100556 49 0 0.0 0.0 0.00 0.35 0.00 98 1011.7
20260510100125 49 0 0.0 0.0 0.00 0.35 0.00 97 1011.7
20260510095556 49 0 0.0 0.0 0.00 0.35 0.00 97 1011.6
20260510095052 49 0 0.0 0.0 0.00 0.35 0.00 98 1011.6
20260510094559 49 0 0.0 0.0 0.00 0.35 0.00 98 1011.6
20260510094052 49 0 0.0 0.0 0.00 0.35 0.00 98 1011.7
20260510093552 49 0 0.0 0.0 0.00 0.35 0.00 98 1011.6
20260510093100 49 0 0.0 0.0 0.00 0.35 0.00 98 1011.5
20260510092552 49 0 0.0 0.0 0.00 0.35 0.00 98 1011.6
20260510092051 49 0 0.0 0.0 0.00 0.35 0.00 97 1011.7
20260510091559 49 0 0.0 0.0 0.00 0.35 0.00 97 1011.8
20260510091051 49 0 0.0 0.0 0.00 0.35 0.00 97 1011.7
20260510090552 49 0 0.0 0.0 0.00 0.35 0.00 98 1011.7
20260510090111 49 0 0.0 0.9 0.00 0.35 0.00 98 1011.8
20260510085553 49 0 0.0 0.9 0.00 0.35 0.00 98 1011.8
20260510085051 50 51 0.0 0.9 0.00 0.35 0.00 98 1011.8
20260510084556 49 0 0.0 0.9 0.00 0.35 0.00 97 1011.8
20260510084052 49 0 0.0 0.9 0.00 0.35 0.00 97 1011.8
20260510083552 50 0 0.0 0.9 0.00 0.35 0.00 97 1011.8
20260510083102 50 0 0.0 0.9 0.00 0.35 0.00 97 1012.0
20260510082552 50 0 0.0 0.9 0.00 0.35 0.00 97 1011.9
20260510082052 50 0 0.0 0.9 0.00 0.35 0.00 97 1011.7
20260510081553 50 0 0.0 0.9 0.00 0.35 0.00 97 1011.5
20260510081052 50 0 0.0 0.9 0.00 0.35 0.00 97 1011.7
20260510080553 50 0 0.0 0.9 0.00 0.35 0.00 97 1011.5
20260510080059 51 0 0.0 0.9 0.00 0.35 0.00 97 1011.4
20260510075553 51 0 0.0 0.9 0.00 0.35 0.00 98 1011.5
20260510075052 51 0 0.0 0.0 0.00 0.35 0.00 98 1011.0
20260510074558 51 0 0.0 0.0 0.00 0.35 0.00 98 1010.9
20260510074053 51 0 0.0 0.0 0.00 0.35 0.00 98 1010.9
20260510073552 51 0 0.0 0.0 0.00 0.35 0.00 97 1010.9
20260510073057 51 0 0.0 0.0 0.00 0.35 0.00 97 1010.8
20260510072553 51 0 0.0 0.0 0.00 0.35 0.00 97 1010.9
20260510072051 51 0 0.0 0.0 0.00 0.35 0.00 97 1010.8
20260510071559 51 0 0.0 0.0 0.00 0.35 0.00 97 1010.9
20260510071052 51 0 0.0 0.0 0.00 0.35 0.00 98 1010.9
20260510070552 51 0 0.0 0.0 0.00 0.35 0.00 98 1010.9
20260510070105 51 0 0.0 0.0 0.00 0.35 0.00 98 1010.9
20260510065552 51 0 0.0 0.0 0.00 0.35 0.00 98 1010.9
20260510065052 51 0 0.0 0.0 0.00 0.35 0.00 98 1010.9
20260510064558 51 0 0.0 0.0 0.00 0.35 0.00 98 1011.0
20260510064051 52 0 0.0 0.0 0.00 0.35 0.00 98 1011.1
20260510063552 52 0 0.0 0.0 0.00 0.35 0.00 98 1011.1
20260510063056 52 0 0.0 0.0 0.00 0.35 0.00 98 1011.1
20260510062553 52 0 0.0 0.0 0.00 0.35 0.00 98 1011.1
20260510062055 52 0 0.0 0.0 0.00 0.35 0.00 98 1011.2
20260510061555 52 0 0.0 0.0 0.00 0.35 0.00 98 1011.1
20260510061051 52 0 0.0 0.0 0.00 0.35 0.00 97 1010.9
20260510060553 52 0 0.0 0.0 0.00 0.35 0.00 97 1010.9
20260510060100 52 0 0.0 0.0 0.00 0.35 0.00 97 1010.9
20260510055554 52 0 0.0 1.7 0.00 0.35 0.00 97 1010.8
20260510055052 52 0 0.0 1.7 0.00 0.35 0.00 97 1010.8
20260510054552 52 0 0.0 1.7 0.00 0.35 0.00 97 1010.9
20260510054053 52 0 0.0 0.0 0.00 0.35 0.00 97 1010.8
20260510053552 52 0 0.0 0.0 0.00 0.35 0.00 97 1010.9
20260510053056 52 0 0.0 0.0 0.00 0.35 0.00 98 1011.0
20260510052553 52 0 0.0 0.9 0.00 0.35 0.00 98 1011.0
20260510052054 52 0 0.0 0.9 0.00 0.35 0.00 98 1011.0
20260510051555 52 0 0.0 0.9 0.00 0.35 0.00 98 1011.0
20260510051052 52 0 0.0 0.9 0.00 0.35 0.00 98 1011.0
20260510050551 52 205 0.0 0.9 0.00 0.35 0.00 98 1011.1
20260510050058 52 0 0.0 0.0 0.00 0.35 0.00 98 1011.2
20260510045552 52 0 0.0 0.0 0.00 0.35 0.00 98 1011.1
20260510045052 52 0 0.0 1.7 0.00 0.35 0.00 98 1011.1
20260510044558 52 0 0.0 1.7 0.00 0.35 0.00 98 1011.2
20260510044052 52 0 0.0 1.7 0.00 0.35 0.00 98 1011.2
20260510043552 51 0 0.0 0.0 0.00 0.35 0.00 98 1011.2
20260510043058 51 0 0.0 0.0 0.00 0.35 0.00 98 1011.1
20260510042557 51 0 0.0 0.0 0.00 0.35 0.00 97 1011.2
20260510042052 51 0 0.0 0.0 0.00 0.35 0.00 97 1011.2
20260510041558 51 0 0.0 0.0 0.00 0.35 0.00 97 1011.3
20260510041052 51 0 0.0 0.0 0.00 0.35 0.00 97 1011.3
20260510040552 51 0 0.0 0.0 0.00 0.35 0.00 97 1011.3
20260510035552 51 0 0.0 0.0 0.00 0.35 0.35 97 1011.2
20260510035052 51 0 0.0 0.0 0.00 0.35 0.35 97 1011.1
20260510034556 51 0 0.0 0.0 0.00 0.35 0.35 97 1011.1
20260510034052 52 0 0.0 0.0 0.00 0.35 0.35 97 1011.1
20260510033551 52 0 0.0 0.0 0.00 0.35 0.35 97 1011.0
20260510033112 52 0 0.0 0.0 0.00 0.35 0.35 97 1010.9
20260510032552 52 0 0.0 0.0 0.00 0.35 0.35 97 1011.0
20260510032057 52 0 0.0 0.0 0.00 0.35 0.35 97 1011.0
20260510031558 52 0 0.0 0.0 0.00 0.35 0.35 97 1011.0
20260510031053 52 0 0.0 0.0 0.00 0.35 0.35 97 1011.0
20260510030556 52 0 0.0 0.0 0.00 0.35 0.35 98 1010.9
20260510030054 52 0 0.0 0.0 0.00 0.35 0.35 98 1010.9
20260510025552 52 0 0.0 1.7 0.00 0.35 0.35 97 1010.8
20260510025051 51 0 0.0 1.7 0.00 0.35 0.35 97 1010.8
20260510024559 51 0 0.0 0.0 0.00 0.35 0.35 97 1010.8
20260510024053 51 0 0.0 0.0 0.00 0.35 0.35 97 1010.8
20260510023550 51 0 0.0 0.0 0.00 0.35 0.35 97 1010.9
20260510023057 51 0 0.0 0.0 0.00 0.35 0.35 97 1010.9
20260510022552 51 0 0.0 0.0 0.00 0.35 0.35 97 1010.9
20260510022052 51 0 0.0 0.0 0.00 0.35 0.35 97 1011.0
20260510021557 51 0 0.0 0.0 0.00 0.35 0.35 96 1011.0
20260510021051 51 0 0.0 0.0 0.00 0.35 0.35 96 1010.9
20260510020551 51 0 0.0 0.0 0.00 0.35 0.35 96 1010.9
20260510020057 51 0 0.0 0.0 0.00 0.35 0.35 97 1010.9
20260510015552 51 0 0.0 0.0 0.00 0.35 0.35 97 1010.9
20260510015052 51 0 0.0 0.0 0.00 0.35 0.35 96 1011.0
20260510014554 51 0 0.0 0.0 0.00 0.35 0.35 96 1011.1
20260510014050 51 0 0.0 0.0 0.00 0.35 0.35 96 1011.0
20260510013553 51 0 0.0 0.0 0.00 0.35 0.35 96 1010.9
20260510013055 51 0 0.0 0.0 0.00 0.35 0.35 96 1011.0
20260510012550 51 0 0.0 0.0 0.00 0.35 0.35 96 1010.8
20260510012052 51 0 0.0 0.0 0.00 0.35 0.35 96 1010.8
20260510011559 52 0 0.0 0.0 0.00 0.35 0.35 96 1010.8
20260510011052 52 0 0.0 0.0 0.00 0.35 0.35 96 1010.8
20260510010552 52 0 0.0 0.0 0.00 0.35 0.35 96 1010.8
20260510010056 52 0 0.0 0.0 0.00 0.35 0.35 96 1010.7
20260510005553 52 0 0.0 0.0 0.00 0.35 0.35 96 1010.6
20260510005052 52 0 0.0 0.0 0.00 0.35 0.35 96 1010.6
20260510004600 52 0 0.0 0.0 0.00 0.35 0.35 96 1010.5
20260510004051 52 0 0.0 0.0 0.00 0.35 0.35 96 1010.4
20260510003551 52 0 0.0 0.0 0.00 0.35 0.35 96 1010.3
20260510003116 52 0 0.0 0.0 0.00 0.35 0.35 96 1010.2
20260510002553 52 0 0.0 0.0 0.00 0.35 0.35 96 1010.2
20260510002051 52 0 0.0 0.0 0.00 0.35 0.35 95 1010.2
20260510001556 52 0 0.0 0.0 0.00 0.35 0.35 95 1010.3
20260510001052 52 0 0.0 0.0 0.00 0.35 0.35 95 1010.2
20260510000554 53 0 0.0 0.0 0.00 0.35 0.35 95 1010.3
20260509235553 53 0 0.0 0.0 0.00 0.35 0.35 95 1010.2
20260509235052 53 0 0.0 0.0 0.00 0.35 0.35 96 1010.3
20260509234603 54 0 0.0 0.0 0.00 0.35 0.35 96 1010.3
20260509234052 54 0 0.0 0.0 0.00 0.35 0.35 96 1010.2
20260509233553 54 0 0.0 0.9 0.00 0.35 0.35 96 1010.2
20260509233057 54 0 0.0 0.9 0.00 0.35 0.35 96 1010.2
20260509232552 54 0 0.0 0.9 0.00 0.35 0.35 96 1010.2
20260509232053 54 0 0.0 0.9 0.00 0.35 0.35 96 1010.2
20260509231557 54 0 0.0 1.7 0.00 0.35 0.35 96 1010.1
20260509231052 54 118 0.0 1.7 0.00 0.35 0.35 96 1010.0
20260509230552 54 0 0.0 1.7 0.00 0.35 0.35 96 1010.0
20260509230108 54 0 0.0 1.7 0.00 0.35 0.35 96 1010.1
20260509225554 54 0 0.0 0.9 0.00 0.35 0.35 96 1010.1
20260509225053 54 0 0.0 0.9 0.00 0.35 0.35 96 1010.1
20260509224556 54 0 0.0 0.9 0.00 0.35 0.35 96 1010.2
20260509224054 55 0 0.0 0.9 0.00 0.35 0.35 96 1010.2
20260509223552 54 0 0.0 0.9 0.00 0.35 0.35 96 1010.2
20260509223058 54 0 0.0 0.9 0.00 0.35 0.35 96 1010.2
20260509222553 54 0 0.0 1.7 0.00 0.35 0.35 96 1010.2
20260509222053 54 0 0.0 1.7 0.00 0.35 0.35 96 1010.2
20260509221559 54 0 0.0 2.6 0.00 0.35 0.35 96 1010.2
20260509221052 55 171 0.0 2.6 0.00 0.35 0.35 96 1010.3
20260509220553 55 0 0.0 1.7 0.01 0.35 0.35 96 1010.3
20260509220057 54 0 0.0 0.9 0.02 0.35 0.35 96 1010.4
20260509215553 54 0 0.0 0.9 0.03 0.35 0.35 95 1010.4
20260509215053 54 0 0.0 0.9 0.05 0.35 0.35 95 1010.4
20260509214555 54 0 0.0 0.9 0.06 0.35 0.35 96 1010.4
20260509214053 54 0 0.0 0.9 0.08 0.35 0.35 95 1010.4
20260509213552 55 0 0.0 0.9 0.11 0.35 0.35 95 1010.4
20260509213059 55 0 0.0 0.9 0.14 0.35 0.35 95 1010.4
20260509212553 55 0 0.0 0.9 0.15 0.35 0.35 96 1010.4
20260509212052 54 0 0.0 0.9 0.15 0.35 0.35 96 1010.3
20260509211603 54 0 0.0 0.0 0.16 0.35 0.35 96 1010.4
20260509211053 54 0 0.0 0.0 0.16 0.35 0.35 95 1010.2
20260509210553 54 0 0.0 0.0 0.15 0.34 0.34 95 1010.1
20260509210101 54 0 0.0 0.0 0.15 0.33 0.33 95 1010.0
20260509205552 54 0 0.0 0.0 0.15 0.32 0.32 95 1010.1
20260509205052 54 0 0.0 0.9 0.13 0.30 0.30 95 1010.2
20260509204554 54 0 0.0 1.7 0.13 0.29 0.29 94 1010.3
20260509204052 54 0 0.0 1.7 0.11 0.26 0.26 94 1010.2
20260509203552 54 0 0.0 1.7 0.09 0.24 0.24 94 1010.3
20260509203056 54 0 0.0 0.0 0.06 0.21 0.21 95 1010.5
20260509202555 54 0 0.0 0.0 0.06 0.20 0.20 94 1010.4
20260509202052 54 0 0.0 0.9 0.06 0.20 0.20 94 1010.3
20260509201552 54 0 0.0 0.9 0.06 0.19 0.19 94 1010.3
20260509201053 54 0 0.0 0.9 0.07 0.19 0.19 94 1010.2
20260509200551 54 0 0.0 0.9 0.08 0.19 0.19 94 1010.4
20260509195553 54 0 0.0 1.7 0.07 0.17 0.17 94 1010.6
20260509195052 54 0 0.0 1.7 0.09 0.17 0.17 94 1010.7
20260509194559 54 0 0.0 1.7 0.08 0.16 0.16 93 1010.6
20260509194052 54 0 0.0 0.9 0.08 0.15 0.15 94 1010.8
20260509193552 54 0 0.0 0.9 0.10 0.15 0.15 94 1011.0
20260509193059 54 0 0.0 1.7 0.11 0.15 0.15 93 1011.0
20260509192553 54 67 0.0 1.7 0.10 0.14 0.14 93 1011.1
20260509192052 54 192 0.0 1.7 0.10 0.14 0.14 93 1011.2
20260509191600 54 0 0.0 1.7 0.10 0.13 0.13 93 1011.1
20260509191052 55 0 0.0 1.7 0.10 0.12 0.12 93 1011.1
20260509190554 55 246 0.0 1.7 0.09 0.11 0.11 93 1011.2
20260509185553 55 0 0.0 0.9 0.08 0.09 0.09 93 1011.2
20260509185051 55 0 0.0 0.9 0.07 0.08 0.08 93 1011.2
20260509184602 55 0 0.0 0.9 0.07 0.07 0.07 92 1011.3
20260509184052 55 0 0.0 0.9 0.06 0.06 0.06 91 1011.4
20260509183554 55 0 0.0 3.5 0.05 0.05 0.05 91 1011.4
20260509183137 55 244 0.0 3.5 0.04 0.04 0.04 91 1011.4
20260509182552 55 0 0.0 2.6 0.04 0.04 0.04 91 1011.4
20260509182052 55 0 0.0 2.6 0.04 0.04 0.04 91 1011.3
20260509181616 56 0 0.0 0.9 0.03 0.03 0.03 91 1011.3
20260509181052 56 0 0.0 2.6 0.02 0.02 0.02 90 1011.2
20260509180552 56 0 0.0 2.6 0.02 0.02 0.02 90 1011.2
20260509180101 56 0 0.0 2.6 0.02 0.02 0.02 88 1011.2
20260509175552 57 192 0.0 1.7 0.01 0.01 0.01 88 1011.3
20260509175052 57 0 0.0 1.7 0.01 0.01 0.01 87 1011.2
20260509174604 57 0 0.0 1.7 0.00 0.00 0.00 87 1011.3
20260509174052 58 0 0.0 1.7 0.00 0.00 0.00 86 1011.5
20260509173556 58 86 0.0 1.7 0.00 0.00 0.00 85 1011.6
20260509173104 59 0 0.0 3.5 0.00 0.00 0.00 85 1011.6
20260509172553 59 0 0.0 3.5 0.00 0.00 0.00 83 1011.6
20260509172051 60 0 0.0 2.6 0.00 0.00 0.00 81 1011.8
20260509171559 60 0 0.0 3.5 0.00 0.00 0.00 80 1011.8
20260509171052 61 277 0.9 3.5 0.00 0.00 0.00 77 1011.7
20260509170552 61 205 0.0 2.6 0.00 0.00 0.00 79 1011.5
20260509170058 61 89 0.0 6.1 0.00 0.00 0.00 79 1011.3
20260509165552 61 0 1.7 6.1 0.00 0.00 0.00 79 1011.4
20260509165052 61 196 0.9 3.5 0.00 0.00 0.00 78 1011.3
20260509164602 61 111 0.0 3.5 0.00 0.00 0.00 79 1011.4
20260509164052 62 123 0.9 3.5 0.00 0.00 0.00 78 1011.5
20260509163552 62 0 0.0 3.5 0.00 0.00 0.00 75 1011.5
20260509163102 62 0 0.0 3.5 0.00 0.00 0.00 75 1011.5
20260509162552 62 98 0.9 3.5 0.00 0.00 0.00 75 1011.5
20260509162051 62 0 0.0 1.7 0.00 0.00 0.00 76 1011.5
20260509161558 61 152 0.0 2.6 0.00 0.00 0.00 78 1011.6
20260509161051 61 0 0.0 2.6 0.00 0.00 0.00 76 1011.6
20260509160553 61 187 0.0 2.6 0.00 0.00 0.00 78 1011.6
20260509160058 61 0 0.0 2.6 0.00 0.00 0.00 79 1011.7
20260509155552 61 158 0.9 2.6 0.00 0.00 0.00 79 1011.7
20260509155052 60 206 0.0 4.3 0.00 0.00 0.00 79 1011.8
20260509154557 60 205 0.9 4.3 0.00 0.00 0.00 78 1011.8
20260509154052 60 174 0.9 2.6 0.00 0.00 0.00 77 1011.7
20260509153552 60 145 0.9 2.6 0.00 0.00 0.00 78 1011.6
20260509153058 60 217 0.0 1.7 0.00 0.00 0.00 78 1011.8
20260509152552 60 0 0.0 2.6 0.00 0.00 0.00 80 1012.0
20260509152052 59 0 0.0 2.6 0.00 0.00 0.00 79 1011.8
20260509151559 59 223 0.9 1.7 0.00 0.00 0.00 78 1011.9
20260509151053 59 164 0.0 2.6 0.00 0.00 0.00 79 1011.8
20260509150552 59 188 0.9 2.6 0.00 0.00 0.00 79 1011.9
20260509150054 59 196 0.9 2.6 0.00 0.00 0.00 79 1012.0
20260509145552 58 198 0.0 1.7 0.00 0.00 0.00 80 1011.9
20260509145052 58 126 0.0 1.7 0.00 0.00 0.00 81 1011.9
20260509144554 58 208 0.0 1.7 0.00 0.00 0.00 82 1011.8
20260509144052 58 0 0.0 2.6 0.00 0.00 0.00 80 1011.8
20260509143553 57 175 0.0 2.6 0.00 0.00 0.00 83 1012.0
20260509143052 57 0 0.0 2.6 0.00 0.00 0.00 82 1012.1
20260509142552 57 205 0.0 2.6 0.00 0.00 0.00 81 1012.0
20260509142052 56 175 0.0 2.6 0.00 0.00 0.00 81 1012.0
20260509141603 56 0 0.0 1.7 0.00 0.00 0.00 81 1011.8
20260509141052 56 0 0.0 1.7 0.00 0.00 0.00 81 1011.9
20260509140552 56 0 0.0 1.7 0.00 0.00 0.00 81 1011.9
20260509140059 56 0 0.0 2.6 0.00 0.00 0.00 81 1012.0
20260509135549 55 197 0.9 2.6 0.00 0.00 0.00 82 1011.9
20260509135051 55 0 0.9 2.6 0.00 0.00 0.00 80 1011.6
20260509134600 55 0 0.0 1.7 0.00 0.00 0.00 81 1011.7
20260509134052 55 150 0.0 1.7 0.00 0.00 0.00 81 1011.8
20260509133550 55 0 0.0 1.7 0.00 0.00 0.00 81 1011.8
20260509133104 54 0 0.0 2.6 0.00 0.00 0.00 82 1012.0
20260509132553 54 0 0.0 2.6 0.00 0.00 0.00 82 1011.8
20260509132057 54 0 0.0 0.0 0.00 0.00 0.00 83 1011.8
20260509131555 53 0 0.0 0.0 0.00 0.00 0.00 83 1011.8
20260509131052 53 0 0.0 0.0 0.00 0.00 0.00 84 1011.9